When you browse on this site, cookies collect data to enhance your experience and personalize the content and advertising you see.
Visit our Privacy Policy to learn more. By continuing to use the site, you agree to this use of cookies and data.
  • In Czech Republic
  • List of Countries
  • For 7 days
  • Water Temperature
  • Satellite Maps
  • Weather Map
  • Weather Widgets
  • user-avatar
    Login

    Hourly Weather Yulara

    Today, 15 December, Saturday

    Time Temperature Precipitation Wind Pressure Humidity
    00:00 +23°C° 0 mm 6 mps 714 mmHg 19%
    01:00 +23°C° 0 mm 5 mps 714 mmHg 21%
    02:00 +22°C° 0 mm 5 mps 714 mmHg 23%
    03:00 +21°C° 0 mm 3 mps 713 mmHg 23%
    04:00 +21°C° 0 mm 3 mps 713 mmHg 25%
    05:00 +21°C° 0 mm 3 mps 714 mmHg 26%
    06:00 +20°C° 0 mm 3 mps 714 mmHg 28%
    07:00 +22°C° 0 mm 3 mps 714 mmHg 26%
    08:00 +24°C° 0 mm 3 mps 714 mmHg 24%
    09:00 +25°C° 0 mm 3 mps 715 mmHg 22%
    10:00 +27°C° 0 mm 2 mps 714 mmHg 19%
    11:00 +29°C° 0 mm 1 mps 714 mmHg 17%
    12:00 +30°C° 0 mm 1 mps 713 mmHg 14%
    13:00 +32°C° 0 mm 1 mps 713 mmHg 12%
    14:00 +33°C° 0 mm 1 mps 712 mmHg 11%
    15:00 +33°C° 0 mm 1 mps 712 mmHg 10%
    16:00 +34°C° 0 mm 1 mps 712 mmHg 9%
    17:00 +35°C° 0 mm 2 mps 712 mmHg 9%
    18:00 +35°C° 0 mm 2 mps 712 mmHg 9%
    19:00 +34°C° 0 mm 2 mps 712 mmHg 10%
    20:00 +32°C° 0 mm 2 mps 712 mmHg 11%
    21:00 +30°C° 0 mm 2 mps 712 mmHg 12%
    22:00 +30°C° 0 mm 2 mps 712 mmHg 13%
    23:00 +29°C° 0 mm 2 mps 713 mmHg 13%

    Tomorrow, 16 December, Sunday

    Time Temperature Precipitation Wind Pressure Humidity
    00:00 +28°C° 0 mm 3 mps 713 mmHg 14%
    01:00 +28°C° 0 mm 3 mps 713 mmHg 16%
    02:00 +27°C° 0 mm 3 mps 713 mmHg 17%
    03:00 +26°C° 0 mm 4 mps 712 mmHg 19%
    04:00 +26°C° 0 mm 4 mps 713 mmHg 22%
    05:00 +25°C° 0 mm 4 mps 713 mmHg 25%
    06:00 +25°C° 0 mm 4 mps 713 mmHg 28%
    07:00 +27°C° 0 mm 5 mps 714 mmHg 25%
    08:00 +30°C° 0 mm 6 mps 714 mmHg 22%
    09:00 +33°C° 0 mm 6 mps 714 mmHg 19%
    10:00 +35°C° 0 mm 6 mps 714 mmHg 16%
    11:00 +37°C° 0 mm 5 mps 713 mmHg 13%
    12:00 +39°C° 0 mm 5 mps 713 mmHg 10%
    13:00 +40°C° 0 mm 4 mps 712 mmHg 10%
    14:00 +40°C° 0 mm 3 mps 712 mmHg 9%
    15:00 +41°C° 0 mm 2 mps 711 mmHg 9%
    16:00 +41°C° 0 mm 2 mps 711 mmHg 9%
    17:00 +40°C° 0 mm 1 mps 711 mmHg 9%
    18:00 +40°C° 0 mm 1 mps 711 mmHg 10%
    19:00 +39°C° 0 mm 2 mps 711 mmHg 10%
    20:00 +38°C° 0 mm 3 mps 711 mmHg 11%
    21:00 +37°C° 0 mm 3 mps 712 mmHg 11%
    22:00 +36°C° 0 mm 4 mps 712 mmHg 12%
    23:00 +35°C° 0 mm 5 mps 711 mmHg 13%

    Day after tomorrow, 17 December, Monday

    Time Temperature Precipitation Wind Pressure Humidity
    00:00 +34°C° 0 mm 6 mps 711 mmHg 14%
    01:00 +33°C° 0 mm 6 mps 711 mmHg 15%
    02:00 +33°C° 0 mm 7 mps 711 mmHg 16%
    03:00 +32°C° 0 mm 8 mps 711 mmHg 16%
    04:00 +32°C° 0 mm 7 mps 711 mmHg 17%
    05:00 +30°C° 0 mm 6 mps 711 mmHg 17%
    06:00 +30°C° 0 mm 6 mps 712 mmHg 18%
    07:00 +34°C° 0 mm 7 mps 712 mmHg 15%
    08:00 +38°C° 0 mm 8 mps 712 mmHg 12%
    09:00 +42°C° 0 mm 9 mps 713 mmHg 9%
    10:00 +43°C° 0 mm 9 mps 713 mmHg 9%
    11:00 +45°C° 0 mm 9 mps 712 mmHg 8%
    12:00 +48°C° 0 mm 8 mps 712 mmHg 8%
    13:00 +48°C° 0 mm 8 mps 711 mmHg 8%
    14:00 +48°C° 0 mm 8 mps 711 mmHg 8%
    15:00 +49°C° 0 mm 7 mps 710 mmHg 8%
    16:00 +47°C° 0 mm 7 mps 710 mmHg 9%
    17:00 +46°C° 0 mm 7 mps 710 mmHg 10%
    18:00 +45°C° 0 mm 6 mps 710 mmHg 11%
    19:00 +44°C° 0 mm 6 mps 710 mmHg 13%
    20:00 +42°C° 0 mm 5 mps 710 mmHg 14%
    21:00 +41°C° 0 mm 4 mps 711 mmHg 16%
    22:00 +40°C° 0 mm 4 mps 711 mmHg 17%
    23:00 +40°C° 0 mm 4 mps 711 mmHg 18%

    18 December, Tuesday

    Time Temperature Precipitation Wind Pressure Humidity
    00:00 +38°C° 0 mm 4 mps 711 mmHg 19%
    01:00 +37°C° 0 mm 5 mps 711 mmHg 18%
    02:00 +37°C° 0 mm 5 mps 711 mmHg 17%
    03:00 +36°C° 0 mm 6 mps 711 mmHg 15%
    04:00 +35°C° 0 mm 6 mps 711 mmHg 14%
    05:00 +34°C° 0 mm 6 mps 711 mmHg 13%
    06:00 +34°C° 0 mm 6 mps 712 mmHg 12%
    07:00 +35°C° 0 mm 5 mps 712 mmHg 11%
    08:00 +36°C° 0 mm 5 mps 713 mmHg 11%
    09:00 +38°C° 0 mm 4 mps 713 mmHg 10%
    10:00 +40°C° 0 mm 4 mps 713 mmHg 10%
    11:00 +40°C° 0 mm 3 mps 713 mmHg 10%
    12:00 +43°C° 0 mm 3 mps 713 mmHg 10%
    13:00 +43°C° 0 mm 4 mps 712 mmHg 10%
    14:00 +45°C° 0 mm 5 mps 712 mmHg 10%
    15:00 +46°C° 0 mm 7 mps 711 mmHg 10%
    16:00 +46°C° 0 mm 7 mps 712 mmHg 10%
    17:00 +45°C° 0 mm 7 mps 712 mmHg 10%
    18:00 +45°C° 0 mm 6 mps 712 mmHg 10%
    19:00 +44°C° 0 mm 6 mps 712 mmHg 11%
    20:00 +41°C° 0 mm 5 mps 713 mmHg 12%
    21:00 +40°C° 0 mm 4 mps 713 mmHg 13%
    22:00 +38°C° 0 mm 6 mps 713 mmHg 14%
    23:00 +36°C° 0 mm 7 mps 713 mmHg 15%

    19 December, Wednesday

    Time Temperature Precipitation Wind Pressure Humidity
    00:00 +35°C° 0 mm 9 mps 713 mmHg 16%
    01:00 +34°C° 0 mm 8 mps 713 mmHg 18%
    02:00 +33°C° 0 mm 8 mps 713 mmHg 21%
    03:00 +32°C° 0 mm 8 mps 713 mmHg 23%
    04:00 +31°C° 0 mm 8 mps 714 mmHg 26%
    05:00 +29°C° 0 mm 8 mps 714 mmHg 30%
    06:00 +29°C° 0 mm 8 mps 715 mmHg 33%
    07:00 +31°C° 0 mm 8 mps 715 mmHg 31%
    08:00 +32°C° 0 mm 8 mps 716 mmHg 30%
    09:00 +34°C° 0 mm 8 mps 716 mmHg 28%
    10:00 +36°C° 0 mm 7 mps 716 mmHg 24%
    11:00 +38°C° 0 mm 6 mps 716 mmHg 21%
    12:00 +40°C° 0 mm 5 mps 715 mmHg 17%
    13:00 +41°C° 0 mm 5 mps 715 mmHg 16%
    14:00 +42°C° 0 mm 4 mps 715 mmHg 14%
    15:00 +42°C° 0 mm 4 mps 714 mmHg 13%
    16:00 +42°C° 0 mm 4 mps 714 mmHg 14%
    17:00 +42°C° 0 mm 5 mps 714 mmHg 14%
    18:00 +42°C° 0 mm 5 mps 715 mmHg 14%
    19:00 +40°C° 0 mm 7 mps 715 mmHg 16%
    20:00 +39°C° 0 mm 8 mps 715 mmHg 18%
    21:00 +37°C° 0 mm 9 mps 715 mmHg 20%
    22:00 +35°C° 0 mm 9 mps 715 mmHg 22%
    23:00 +34°C° 0 mm 9 mps 715 mmHg 23%

    20 December, Thursday

    Time Temperature Precipitation Wind Pressure Humidity
    00:00 +33°C° 0 mm 10 mps 715 mmHg 25%
    01:00 +31°C° 0 mm 9 mps 715 mmHg 29%
    02:00 +29°C° 0 mm 9 mps 715 mmHg 32%
    03:00 +28°C° 0 mm 9 mps 715 mmHg 36%
    04:00 +27°C° 0 mm 9 mps 716 mmHg 39%
    05:00 +26°C° 0 mm 8 mps 716 mmHg 43%
    06:00 +26°C° 0 mm 8 mps 717 mmHg 47%
    07:00 +27°C° 0 mm 8 mps 717 mmHg 43%
    08:00 +29°C° 0 mm 7 mps 718 mmHg 38%
    09:00 +30°C° 0 mm 7 mps 718 mmHg 34%
    10:00 +33°C° 0 mm 7 mps 718 mmHg 31%
    11:00 +34°C° 0 mm 6 mps 717 mmHg 29%
    12:00 +35°C° 0 mm 6 mps 717 mmHg 26%
    13:00 +36°C° 0 mm 5 mps 717 mmHg 24%
    14:00 +37°C° 0 mm 5 mps 716 mmHg 23%
    15:00 +37°C° 0 mm 5 mps 715 mmHg 21%
    16:00 +37°C° 0 mm 5 mps 715 mmHg 21%
    17:00 +37°C° 0 mm 5 mps 715 mmHg 21%
    18:00 +37°C° 0 mm 5 mps 715 mmHg 20%
    19:00 +36°C° 0 mm 5 mps 715 mmHg 22%
    20:00 +34°C° 0 mm 5 mps 715 mmHg 23%
    21:00 +33°C° 0 mm 5 mps 716 mmHg 25%
    22:00 +32°C° 0 mm 4 mps 716 mmHg 26%
    23:00 +31°C° 0 mm 3 mps 716 mmHg 27%
    Show more